This demonstration page uses our WeatherBlox Daily Observations layout. Learn more.

Left ArrowRight Arrow

44.8408, -93.29828

Hourly Observations for September 22, 2016

Temp ( °F °C ) Dew Point ( °F °C ) Humidity (%) Winds ( mph kmh ) Pressure ( in mb ) Visibility ( mi km ) Precip ( " mm )
12:05 am 00:05 Cloudy with Light Rain 67 19.4 64 17.8 91 91 E 10 17 30.00 1016 10 16 0.00 0.03
12:13 am 00:13 Cloudy with Heavy Rain 67 19.4 64 17.8 91 91 NE 13 20 30.00 1016 3 4 0.13 3.30
12:22 am 00:22 Cloudy with Heavy Rain 66 19 64 18 94 94 NE 10 17 30.00 1016 3 5 0.00 0.00
12:48 am 00:48 Cloudy with Heavy Rain 66 19 64 18 94 94 SE 15 24 29.97 1015 4 6 0.00 0.00
12:53 am 00:53 Cloudy with Rain 66 18.9 63 17.2 90 90 SE 20 31 29.97 1015 4 6 0.45 11.43
1:53 am 01:53 Cloudy 66 18.9 63 17.2 90 90 SE 16 26 29.96 1015 10 16 0.03 0.76
2:53 am 02:53 Mostly Cloudy 66 18.9 62 16.7 87 87 SSE 14 22 29.96 1014 10 16 0.00 0.00
3:53 am 03:53 Cloudy 66 18.9 62 16.7 87 87 SE 14 22 29.95 1014 10 16 0.00 0.00
4:53 am 04:53 Cloudy with Light Rain 65 18.3 62 16.7 90 90 VRB 7 11 29.96 1015 8 13 0.06 1.52
5:53 am 05:53 Cloudy 65 18.3 62 16.7 90 90 SE 10 17 29.94 1014 10 16 0.01 0.25
6:25 am 06:25 Cloudy 65 18.3 62 16.7 90 90 NNW 8 13 29.97 1015 10 16 0.00 0.03
6:53 am 06:53 Cloudy 66 18.9 62 16.7 87 87 VRB 6 9 30.01 1016 10 16 0.00 0.03
7:14 am 07:14 Cloudy 66 18.9 62 16.7 87 87 N 6 9 30.00 1016 10 16 0.00 0.00
7:53 am 07:53 Cloudy 66 18.9 62 16.7 87 87 VRB 6 9 30.02 1017 10 16 0.00 0.00
8:53 am 08:53 Cloudy 66 18.9 63 17.2 90 90 NNE 3 6 30.03 1017 10 16 0.00 0.00
9:27 am 09:27 Cloudy 65 18.3 62 16.7 90 90 N 6 9 30.00 1016 10 16 0.00 0.00
9:53 am 09:53 Cloudy 66 18.9 62 16.7 87 87 NNE 5 7 30.04 1017 10 16 0.00 0.00
10:53 am 10:53 Cloudy 67 19.4 63 17.2 87 87 NE 7 11 30.04 1017 10 16 0.00 0.00
11:53 am 11:53 Cloudy 68 20 63 17.2 84 84 NE 10 17 30.02 1017 10 16 0.00 0.00
12:53 pm 12:53 Cloudy 70 21.1 63 17.2 79 79 ENE 12 19 30.01 1016 10 16 0.00 0.00
1:53 pm 13:53 Mostly Cloudy 71 21.7 62 16.7 73 73 NNE 12 19 30.01 1016 10 16 0.00 0.00
2:53 pm 14:53 Mostly Cloudy 70 21.1 62 16.7 76 76 N 12 19 30.02 1017 10 16 0.00 0.00
3:53 pm 15:53 Mostly Cloudy 70 21.1 62 16.7 76 76 NNE 14 22 30.03 1017 10 16 0.00 0.00
4:35 pm 16:35 Mostly Cloudy 69 20.6 61 16.1 76 76 NNE 12 19 30.00 1016 10 16 0.00 0.00
4:53 pm 16:53 Cloudy 68 20 61 16.1 78 78 NNE 12 19 30.04 1017 10 16 0.00 0.00
5:53 pm 17:53 Cloudy 66 18.9 60 15.6 81 81 N 12 19 30.05 1018 10 16 0.00 0.00
6:22 pm 18:22 Cloudy 66 19 61 16 83 83 N 12 19 30.03 1017 10 16 0.00 0.00
6:53 pm 18:53 Cloudy 64 17.8 59 15 84 84 NNE 15 24 30.06 1018 10 16 0.00 0.00
7:16 pm 19:16 Cloudy 63 17 57 14 83 83 NNE 14 22 30.03 1017 10 16 0.00 0.00
7:53 pm 19:53 Cloudy 63 17.2 58 14.4 84 84 NE 9 15 30.07 1018 10 16 0.00 0.00
8:53 pm 20:53 Cloudy 63 17.2 57 13.9 81 81 ENE 10 17 30.09 1019 10 16 0.00 0.00
9:53 pm 21:53 Cloudy 63 17.2 57 13.9 81 81 NE 9 15 30.09 1019 10 16 0.00 0.00
10:53 pm 22:53 Cloudy 63 17.2 57 13.9 81 81 NE 10 17 30.09 1019 10 16 0.00 0.00
11:06 pm 23:06 Cloudy 62 16.7 57 13.9 84 84 NNE 9 15 30.06 1018 10 16 0.00 0.00
11:53 pm 23:53 Mostly Cloudy 62 16.7 56 13.3 80 80 ENE 9 15 30.08 1019 10 16 0.00 0.00

Powered by AerisWeather